Temp
-6 -6 -6 -6 -6 -6 -6 -6 -6 -6 -6 -7 -7 -7 -7 -7 -8 -8 -8 -8 -8 -8 -8 -8 -8 -9 -9 -9 -9 -9 -10 -9 -9 -10 -10 -10 -10 -10 -10 -10 -10 -10 -10 -10 -11
-7 -6 -6 -6 -6 -6 -6 -6 -6 -7 -7 -7 -8 -8 -8 -8 -8 -8 -8 -8 -8 -8 -8 -8 -9 -10 -10 -10 -10 -9 -10 -9 -9 -10 -10 -10 -10 -10 -10 -11 -11 -11 -10 -11 -11
-7 -7 -6 -6 -6 -6 -6 -6 -7 -7 -7 -7 -8 -8 -8 -8 -8 -9 -9 -8 -9 -8 -8 -8 -9 -10 -11 -11 -11 -10 -10 -10 -10 -10 -10 -10 -10 -10 -11 -11 -11 -11 -11 -11 -11
-7 -7 -7 -6 -6 -6 -6 -7 -7 -7 -8 -8 -8 -8 -8 -8 -8 -9 -9 -8 -8 -8 -8 -8 -10 -11 -11 -11 -11 -11 -11 -11 -11 -11 -11 -11 -10 -11 -11 -11 -11 -11 -11 -11 -11
-7 -7 -7 -7 -7 -7 -7 -7 -7 -8 -8 -8 -8 -8 -8 -8 -8 -9 -9 -8 -8 -8 -8 -8 -11 -11 -11 -11 -11 -11 -11 -11 -11 -11 -11 -10 -11 -11 -11 -11 -11 -11 -11 -11 -11
-7 -7 -7 -7 -7 -7 -7 -7 -8 -8 -8 -8 -8 -8 -8 -8 -9 -8 -8 -8 -8 -8 -8 -8 -8 -9 -10 -11 -11 -11 -11 -11 -11 -11 -11 -11 -11 -11 -11 -11 -11 -11 -11 -11 -11
-7 -7 -7 -7 -7 -7 -7 -8 -8 -8 -8 -8 -8 -8 -8 -8 -8 -8 -8 -8 -8 -8 -8 -8 -8 -9 -9 -10 -10 -10 -10 -10 -10 -11 -10 -11 -11 -11 -11 -11 -11 -11 -11 -11 -11
-7 -8 -8 -8 -8 -8 -8 -8 -8 -8 -8 -8 -8 -8 -8 -8 -8 -8 -8 -8 -8 -8 -8 -8 -9 -9 -11 -10 -10 -10 -11 -8 -11 -10 -11 -11 -12 -11 -11 -11 -11 -11 -12 -12 -12
-8 -8 -8 -8 -8 -8 -8 -8 -8 -8 -8 -8 -8 -8 -8 -8 -8 -8 -8 -9 -9 -9 -9 -9 -9 -10 -10 -10 -11 -11 -10 -10 -9 -11 -11 -11 -11 -11 -11 -11 -11 -11 -12 -11 -12
-8 -8 -8 -8 -8 -8 -8 -8 -8 -8 -8 -8 -8 -8 -8 -8 -8 -9 -9 -9 -9 -9 -9 -9 -9 -11 -10 -10 -10 -9 -10 -10 -10 -11 -11 -11 -11 -11 -11 -11 -11 -12 -12 -12 -12
-8 -8 -8 -8 -8 -8 -8 -8 -8 -8 -8 -8 -8 -8 -8 -8 -9 -9 -9 -9 -9 -9 -10 -10 -11 -11 -11 -10 -11 -11 -10 -10 -10 -11 -11 -11 -11 -11 -11 -11 -11 -11 -11 -12 -12
-9 -8 -8 -9 -9 -9 -8 -8 -9 -9 -9 -9 -9 -8 -8 -8 -9 -9 -9 -9 -10 -11 -11 -11 -10 -11 -10 -11 -11 -11 -11 -10 -12 -11 -11 -11 -11 -11 -11 -12 -11 -12 -12 -12 -13
-9 -9 -9 -9 -9 -9 -9 -9 -9 -9 -9 -9 -9 -9 -9 -9 -9 -9 -9 -10 -11 -11 -11 -10 -11 -10 -11 -11 -11 -11 -11 -11 -11 -11 -11 -11 -11 -11 -11 -12 -12 -12 -13 -13 -13
-9 -9 -9 -9 -9 -9 -9 -9 -9 -9 -9 -9 -9 -9 -9 -9 -9 -9 -9 -10 -11 -11 -11 -11 -10 -11 -12 -11 -11 -11 -10 -11 -12 -11 -12 -11 -12 -11 -12 -13 -13 -13 -13 -13 -14
-9 -9 -9 -9 -9 -9 -9 -9 -9 -9 -11 -9 -9 -9 -9 -11 -10 -9 -10 -11 -11 -11 -11 -11 -12 -12 -11 -11 -11 -12 -11 -11 -11 -12 -11 -11 -11 -10 -11 -13 -13 -13 -14 -14 -14
-9 -9 -9 -9 -9 -9 -9 -9 -9 -10 -11 -9 -9 -9 -10 -10 -10 -10 -10 -10 -10 -12 -11 -11 -10 -11 -11 -11 -11 -11 -11 -12 -12 -12 -11 -10 -11 -12 -12 -13 -13 -14 -14 -14 -14
-9 -9 -9 -9 -9 -9 -9 -9 -10 -10 -10 -10 -10 -10 -11 -11 -10 -12 -12 -11 -11 -11 -11 -12 -12 -11 -11 -11 -12 -12 -12 -12 -11 -11 -11 -12 -13 -13 -13 -13 -13 -13 -14 -14 -14
-9 -9 -9 -9 -9 -9 -9 -10 -11 -11 -11 -10 -10 -11 -11 -11 -11 -11 -12 -11 -11 -11 -11 -10 -10 -11 -11 -11 -11 -12 -13 -12 -13 -13 -13 -12 -12 -12 -12 -13 -13 -14 -14 -14 -14
-9 -9 -9 -9 -9 -9 -9 -10 -11 -11 -10 -10 -11 -11 -11 -12 -11 -12 -11 -12 -11 -11 -11 -11 -11 -11 -11 -11 -11 -11 -12 -12 -12 -13 -12 -13 -13 -13 -13 -14 -14 -14 -14 -14 -14
-9 -9 -9 -9 -9 -9 -9 -10 -10 -9 -10 -11 -11 -11 -11 -11 -12 -12 -11 -11 -11 -11 -11 -12 -12 -12 -11 -11 -13 -12 -12 -12 -13 -13 -13 -13 -13 -13 -13 -13 -14 -14 -15 -15 -15
-9 -9 -9 -9 -9 -9 -10 -9 -9 -10 -10 -11 -11 -11 -12 -12 -12 -11 -12 -11 -11 -11 -12 -11 -13 -13 -13 -11 -11 -11 -12 -12 -13 -14 -14 -14 -14 -13 -14 -13 -14 -14 -15 -16 -16
-10 -9 -9 -9 -9 -9 -10 -10 -10 -10 -10 -10 -11 -11 -12 -11 -11 -12 -12 -11 -11 -11 -11 -10 -11 -11 -14 -12 -11 -12 -12 -12 -12 -14 -15 -15 -13 -14 -14 -14 -14 -14 -15 -16 -17
-10 -9 -9 -9 -9 -10 -10 -10 -10 -10 -10 -10 -10 -11 -11 -11 -11 -11 -11 -11 -11 -11 -11 -11 -11 -11 -14 -13 -13 -12 -12 -12 -13 -13 -14 -15 -14 -13 -14 -14 -14 -15 -16 -17 -17
-10 -9 -9 -9 -9 -10 -10 -10 -10 -10 -10 -10 -11 -11 -11 -11 -11 -11 -11 -11 -11 -11 -11 -11 -11 -11 -12 -12 -13 -13 -13 -13 -13 -13 -14 -14 -14 -14 -14 -15 -15 -16 -17 -17 -17
-9 -9 -9 -9 -9 -10 -10 -10 -10 -10 -10 -11 -11 -11 -11 -11 -11 -11 -11 -11 -11 -11 -11 -11 -11 -11 -12 -12 -13 -13 -13 -13 -13 -13 -14 -14 -14 -14 -15 -15 -16 -16 -17 -17 -17
-10 -10 -10 -10 -10 -10 -10 -10 -10 -10 -10 -10 -11 -11 -11 -11 -11 -12 -11 -12 -12 -11 -11 -11 -11 -12 -12 -13 -13 -13 -13 -13 -13 -13 -14 -14 -14 -14 -15 -15 -16 -16 -17 -17 -18
-10 -10 -10 -10 -10 -10 -10 -10 -10 -10 -10 -10 -11 -11 -11 -11 -11 -12 -12 -12 -12 -12 -11 -12 -12 -13 -12 -13 -13 -13 -13 -13 -14 -14 -14 -14 -14 -15 -15 -15 -16 -16 -17 -17 -17
Height
5892 5893 5892 5892 5891 5890 5889 5889 5888 5887 5887 5887 5887 5887 5888 5889 5890 5891 5893 5894 5895 5896 5897 5898 5899 5901 5903 5906 5909 5912 5914 5920 5916 5914 5910 5906 5902 5898 5895 5895 5895 5895 5894 5893 5891
5891 5891 5891 5890 5890 5888 5888 5887 5886 5886 5885 5885 5886 5886 5887 5887 5889 5890 5893 5894 5895 5896 5897 5899 5900 5903 5905 5908 5910 5910 5917 5912 5912 5912 5909 5909 5903 5900 5898 5896 5895 5894 5893 5892 5890
5889 5890 5890 5889 5888 5887 5886 5885 5885 5885 5885 5885 5885 5886 5886 5887 5889 5891 5893 5894 5895 5897 5898 5900 5901 5904 5909 5910 5911 5910 5911 5910 5910 5908 5907 5906 5903 5900 5897 5897 5895 5893 5891 5889 5887
5888 5889 5888 5888 5886 5886 5885 5885 5884 5885 5885 5885 5886 5886 5887 5888 5892 5892 5894 5895 5897 5898 5899 5901 5904 5908 5912 5910 5909 5909 5909 5909 5908 5908 5906 5904 5902 5898 5897 5895 5893 5891 5890 5888 5886
5888 5887 5887 5886 5885 5885 5884 5885 5885 5886 5886 5886 5887 5888 5889 5890 5893 5894 5895 5896 5898 5899 5901 5902 5906 5908 5912 5907 5908 5908 5907 5907 5906 5905 5904 5902 5900 5899 5896 5894 5890 5889 5886 5884 5882
5886 5886 5886 5885 5885 5885 5885 5885 5886 5886 5888 5887 5888 5889 5891 5892 5894 5895 5897 5898 5899 5900 5901 5902 5903 5904 5906 5906 5908 5905 5905 5904 5903 5903 5902 5900 5898 5896 5894 5891 5888 5885 5883 5881 5878
5885 5885 5885 5885 5885 5886 5885 5887 5887 5887 5888 5889 5889 5891 5892 5894 5895 5897 5898 5899 5900 5901 5902 5902 5902 5904 5904 5904 5904 5904 5902 5899 5898 5899 5898 5897 5896 5892 5891 5888 5885 5881 5879 5876 5872
5884 5885 5885 5885 5886 5886 5886 5887 5888 5889 5890 5891 5892 5893 5894 5895 5897 5898 5900 5900 5901 5902 5902 5902 5902 5903 5904 5904 5904 5903 5901 5887 5891 5895 5896 5895 5891 5889 5886 5883 5880 5877 5874 5870 5867
5883 5884 5885 5885 5885 5886 5887 5888 5889 5891 5891 5893 5894 5894 5895 5897 5898 5899 5900 5901 5901 5902 5902 5902 5902 5904 5904 5903 5904 5904 5897 5896 5895 5894 5894 5893 5889 5885 5882 5878 5876 5873 5870 5864 5861
5883 5885 5885 5885 5886 5887 5888 5889 5891 5891 5893 5894 5895 5897 5897 5899 5899 5899 5901 5901 5902 5902 5903 5903 5902 5904 5906 5909 5904 5900 5896 5899 5897 5892 5891 5888 5885 5882 5878 5873 5868 5867 5863 5858 5854
5883 5884 5884 5885 5886 5887 5889 5890 5893 5894 5894 5895 5896 5897 5899 5900 5900 5900 5901 5902 5901 5902 5903 5903 5908 5907 5910 5908 5906 5906 5901 5894 5889 5889 5887 5885 5882 5877 5874 5869 5864 5859 5855 5850 5846
5882 5883 5884 5885 5886 5888 5889 5892 5892 5894 5895 5895 5896 5898 5899 5900 5900 5901 5902 5902 5902 5905 5907 5910 5910 5907 5906 5905 5904 5904 5903 5877 5885 5885 5884 5878 5876 5872 5867 5860 5857 5852 5847 5843 5839
5881 5883 5884 5886 5887 5889 5890 5892 5893 5894 5895 5896 5896 5898 5899 5901 5901 5901 5902 5902 5906 5908 5911 5910 5906 5904 5903 5905 5903 5896 5896 5891 5888 5882 5879 5872 5867 5865 5859 5854 5850 5846 5842 5837 5831
5881 5882 5884 5886 5888 5888 5891 5893 5893 5894 5896 5897 5897 5898 5899 5900 5900 5901 5901 5904 5910 5911 5909 5907 5903 5902 5903 5903 5898 5898 5890 5888 5884 5879 5879 5870 5865 5846 5854 5845 5842 5839 5835 5831 5825
5880 5882 5884 5885 5887 5889 5892 5893 5894 5895 5900 5897 5897 5898 5898 5901 5900 5900 5900 5902 5908 5907 5906 5901 5902 5903 5902 5896 5894 5894 5888 5885 5882 5877 5869 5869 5861 5848 5851 5840 5840 5837 5833 5829 5823
5879 5881 5883 5885 5887 5889 5891 5893 5895 5898 5897 5896 5897 5898 5899 5899 5900 5899 5900 5900 5902 5903 5904 5902 5899 5897 5895 5892 5891 5887 5883 5884 5880 5874 5870 5866 5864 5854 5851 5846 5840 5834 5829 5824 5819
5877 5880 5882 5884 5886 5888 5890 5892 5897 5901 5898 5897 5897 5899 5903 5899 5899 5901 5900 5900 5900 5904 5898 5899 5897 5892 5892 5892 5888 5885 5883 5879 5880 5878 5874 5860 5862 5851 5848 5842 5837 5830 5824 5819 5814
5876 5879 5881 5883 5884 5887 5890 5893 5896 5896 5897 5896 5898 5900 5902 5899 5898 5898 5899 5901 5898 5899 5903 5900 5893 5891 5888 5887 5884 5880 5878 5877 5870 5867 5866 5864 5851 5848 5846 5839 5833 5828 5820 5813 5807
5876 5878 5880 5883 5885 5887 5890 5893 5896 5894 5895 5896 5898 5901 5901 5898 5899 5897 5897 5896 5895 5894 5897 5897 5892 5887 5885 5882 5878 5876 5874 5870 5863 5863 5864 5856 5849 5846 5843 5836 5829 5822 5815 5808 5801
5876 5878 5881 5883 5885 5887 5889 5891 5891 5892 5893 5895 5901 5899 5900 5898 5899 5899 5894 5893 5891 5892 5891 5891 5889 5882 5878 5876 5873 5869 5866 5863 5862 5862 5860 5850 5849 5841 5838 5832 5826 5818 5810 5803 5796
5876 5879 5881 5883 5885 5886 5889 5888 5889 5890 5891 5893 5894 5894 5895 5895 5895 5896 5892 5888 5888 5887 5886 5884 5884 5883 5876 5869 5867 5865 5862 5859 5857 5856 5856 5855 5845 5840 5835 5828 5821 5814 5807 5798 5791
5876 5879 5880 5882 5885 5885 5887 5888 5888 5889 5889 5889 5889 5889 5889 5890 5889 5889 5885 5884 5883 5883 5881 5879 5878 5877 5873 5867 5865 5860 5857 5855 5853 5853 5853 5849 5843 5837 5830 5823 5816 5808 5801 5793 5784
5875 5877 5879 5881 5882 5883 5884 5885 5886 5886 5885 5885 5885 5885 5886 5885 5886 5884 5880 5881 5879 5878 5876 5875 5871 5872 5867 5861 5857 5858 5856 5854 5852 5849 5848 5845 5838 5832 5826 5818 5811 5802 5793 5786 5779
5873 5875 5877 5878 5880 5880 5881 5882 5883 5882 5882 5881 5881 5880 5881 5881 5882 5880 5877 5877 5875 5873 5872 5870 5868 5866 5865 5861 5858 5856 5854 5852 5850 5848 5845 5839 5834 5827 5821 5813 5803 5795 5788 5780 5773
5870 5872 5874 5876 5877 5878 5879 5879 5878 5879 5878 5877 5877 5877 5878 5877 5877 5875 5873 5871 5870 5868 5867 5865 5862 5860 5858 5856 5854 5853 5852 5850 5848 5845 5841 5836 5830 5824 5817 5809 5800 5791 5783 5775 5767
5868 5870 5871 5873 5874 5875 5875 5876 5875 5875 5875 5874 5873 5874 5873 5873 5873 5872 5870 5867 5865 5862 5861 5860 5857 5855 5854 5853 5852 5851 5850 5848 5845 5841 5838 5832 5826 5820 5812 5805 5795 5786 5779 5770 5763
5865 5867 5868 5870 5871 5871 5872 5872 5871 5871 5871 5870 5870 5869 5869 5869 5868 5866 5865 5864 5862 5860 5856 5855 5853 5853 5853 5852 5851 5850 5848 5846 5843 5838 5835 5830 5823 5816 5806 5800 5791 5782 5774 5767 5760
Wind_Speed
16 13 12 11 12 13 15 15 16 16 14 11 9 7 6 6 6 5 4 3 4 5 7 8 7 8 11 10 14 20 17 7 10 2 8 11 12 16 19 12 11 13 12 16 16
12 12 11 11 13 13 15 16 15 12 8 5 3 2 3 5 5 5 6 7 7 8 8 8 9 9 9 8 12 11 2 18 12 7 6 7 16 18 12 9 12 15 16 16 18
10 10 10 11 12 13 15 12 9 6 3 1 2 2 3 5 7 8 8 9 9 8 7 7 8 10 8 7 11 7 8 5 7 10 14 14 18 17 11 12 16 19 19 18 20
9 10 9 10 11 12 10 7 4 1 2 3 4 4 6 7 9 10 11 10 9 8 7 10 13 14 5 9 11 10 6 8 10 13 15 17 19 15 15 18 19 21 18 20 22
9 8 8 9 9 7 5 3 2 3 5 6 6 7 6 7 10 12 11 9 8 8 8 9 12 8 7 11 12 13 11 12 13 17 18 21 16 14 16 20 25 23 22 20 23
7 7 7 6 5 3 1 3 4 6 8 8 8 7 7 8 10 11 10 8 7 6 6 5 4 10 12 14 15 16 19 18 19 18 20 16 14 16 17 21 24 25 22 24 28
6 6 5 3 2 1 3 4 7 9 9 9 9 7 7 7 10 10 9 6 3 3 1 3 2 7 5 9 10 12 11 12 9 11 13 16 17 19 19 21 24 26 27 29 32
6 5 3 2 2 4 5 7 8 10 10 10 8 7 6 6 7 5 3 2 1 1 2 4 4 2 4 2 5 6 7 10 4 15 15 15 20 22 26 27 28 31 33 37 37
7 5 3 2 4 5 7 7 8 9 10 8 7 6 7 6 6 5 5 4 2 2 3 4 5 4 5 4 4 5 15 14 20 17 21 24 26 29 29 31 33 35 36 36 40
7 7 4 4 5 6 6 6 6 7 7 7 6 4 5 5 6 6 5 4 2 3 4 7 11 8 11 2 18 15 5 8 13 24 26 28 29 27 28 30 32 32 35 38 39
9 7 5 6 7 7 7 7 6 5 5 4 5 3 4 4 4 4 4 4 4 4 7 10 5 5 9 10 7 10 22 25 25 30 28 27 26 26 29 34 35 38 38 38 38
8 7 8 8 7 7 7 6 6 5 4 4 4 3 4 3 2 3 3 3 5 7 6 6 7 9 14 14 9 11 15 14 21 25 25 30 28 31 33 33 32 32 33 32 33
9 10 10 8 7 6 6 6 5 5 4 4 4 4 3 2 3 3 2 5 6 2 2 9 16 12 8 8 6 18 9 21 26 30 30 23 33 26 32 30 35 34 32 33 31
9 9 8 7 6 5 6 5 5 4 3 4 5 5 5 4 5 4 3 9 8 5 4 6 16 8 5 9 11 13 20 27 27 31 17 31 25 27 25 41 30 29 30 29 27
9 9 7 5 5 5 5 5 5 3 4 7 9 6 5 3 7 2 3 5 4 8 2 10 8 3 9 17 15 16 21 24 24 27 20 16 33 22 41 47 35 37 32 26 32
9 8 8 7 7 6 6 6 4 3 10 8 8 6 3 4 5 7 4 5 5 5 6 14 16 13 14 18 19 22 22 24 27 22 27 28 15 32 37 36 36 34 32 34 34
9 8 8 8 7 7 7 6 7 2 7 7 6 4 5 4 4 4 4 2 3 4 7 5 11 19 16 16 18 22 25 23 15 14 21 22 24 36 27 32 30 31 32 32 34
8 7 7 8 8 8 7 8 7 9 7 8 8 8 6 4 6 6 1 6 10 10 6 11 25 22 27 24 23 21 23 20 26 24 19 18 30 26 31 29 31 32 34 37 39
8 7 7 7 8 8 8 7 9 11 8 7 6 3 8 7 3 6 8 15 12 12 11 11 18 21 25 21 27 24 23 28 24 15 16 22 26 24 26 32 33 35 36 38 38
7 6 5 6 7 8 9 14 11 10 9 9 6 14 6 7 2 4 11 13 15 14 14 15 13 27 30 27 22 32 31 20 10 9 6 17 24 27 31 32 34 35 34 33 38
8 5 5 6 6 7 6 10 10 9 10 12 16 14 18 14 13 11 18 19 15 15 17 17 17 18 27 29 34 28 19 13 7 6 7 12 24 24 30 33 36 37 39 40 42
9 8 6 6 7 8 10 8 9 9 12 14 17 17 20 17 19 16 21 19 20 17 19 18 18 21 22 31 26 20 13 7 7 8 10 13 24 25 30 35 37 39 38 39 40
11 11 10 10 10 11 10 10 11 12 14 16 18 20 20 22 20 19 24 19 20 19 20 20 25 23 23 31 25 18 8 6 9 14 18 13 24 28 30 35 38 39 41 36 33
13 13 13 12 11 11 12 12 12 14 16 19 19 22 21 22 17 19 21 18 18 18 19 20 23 23 17 19 21 12 6 8 11 14 15 22 25 30 34 37 41 41 36 36 35
13 13 12 11 11 12 13 14 16 16 16 17 20 21 20 19 18 19 20 19 19 19 18 22 23 18 16 14 9 6 7 11 14 16 17 22 27 30 33 37 39 37 36 37 34
12 12 12 13 13 14 15 15 17 16 17 18 19 18 19 18 18 20 18 21 23 23 21 20 17 16 12 5 5 6 9 13 15 17 20 25 28 31 34 35 38 38 36 36 33
14 15 14 14 15 16 15 15 17 17 18 18 18 19 18 17 17 18 19 20 21 22 24 17 15 9 8 5 5 7 11 14 16 20 22 24 28 32 38 39 38 38 37 31 30
Wind_Direction
278 273 283 293 301 308 307 305 307 300 297 295 290 273 255 242 233 237 226 181 160 146 135 127 115 106 111 118 118 104 96 187 178 175 290 334 318 323 322 326 324 333 346 355 350
266 271 280 295 301 305 306 307 305 305 307 310 300 267 219 204 201 184 167 160 153 149 146 137 133 126 111 125 140 110 186 220 234 244 274 281 318 312 300 286 313 321 325 335 337
261 274 285 295 300 307 304 309 313 324 337 14 76 122 155 160 158 151 151 149 144 137 140 134 118 137 160 160 197 192 189 221 260 298 302 304 314 311 280 295 306 305 314 322 324
257 270 286 295 305 304 305 311 339 356 89 84 95 117 128 137 141 139 140 141 141 134 125 130 129 150 175 215 218 238 256 259 264 296 300 307 317 306 286 297 301 305 303 313 315
257 276 291 299 302 307 319 352 80 101 93 97 103 111 118 122 133 142 144 142 133 118 112 137 154 155 209 226 235 255 261 277 285 296 300 312 313 301 304 305 301 306 299 296 306
260 276 286 297 302 313 32 115 118 103 100 105 104 105 114 122 139 151 152 146 134 126 131 145 150 176 199 204 215 241 253 263 274 287 295 305 299 302 304 302 303 305 301 301 302
251 260 278 295 287 156 133 125 113 109 114 113 109 117 131 137 159 164 160 155 127 126 138 104 58 180 182 215 231 251 272 269 275 293 294 290 290 296 296 295 300 299 299 301 302
233 235 261 248 183 157 144 136 128 128 129 121 118 121 111 134 160 161 135 101 75 63 56 83 84 107 171 251 332 326 294 240 2 311 306 296 299 295 297 299 297 299 301 301 300
221 220 235 186 163 167 158 152 145 139 131 129 127 124 117 120 123 119 109 90 72 104 87 80 86 88 73 47 336 237 290 331 315 305 299 299 294 298 300 297 294 293 296 295 297
209 209 206 171 180 179 177 161 153 129 134 137 137 136 131 130 116 112 103 96 120 107 90 79 68 67 51 330 275 358 55 309 285 301 300 297 295 293 296 301 302 299 293 292 293
205 205 203 191 185 175 175 165 157 146 149 149 152 154 152 144 134 127 118 106 74 56 87 80 161 198 181 212 258 271 259 269 291 294 297 296 295 296 299 299 296 296 295 295 296
201 206 210 206 191 179 177 174 170 166 169 163 173 183 171 171 156 128 99 78 48 77 121 97 200 215 238 267 293 300 313 284 330 313 308 308 307 301 301 302 304 310 307 304 304
205 213 212 206 201 188 186 190 185 190 185 192 209 205 212 217 194 178 149 66 77 92 87 229 236 270 269 307 303 290 268 281 301 313 315 304 310 303 313 310 309 310 309 310 306
193 205 213 210 203 196 198 200 199 201 199 213 221 228 246 241 237 216 192 133 115 206 183 234 257 275 310 288 278 301 292 294 311 322 316 313 314 278 317 297 299 313 318 315 305
203 212 220 213 205 213 205 203 200 190 150 242 234 246 238 201 267 267 195 129 193 247 215 219 288 299 287 262 293 281 295 306 328 325 286 284 326 318 314 308 317 316 312 306 306
213 213 216 209 202 204 201 196 186 179 259 258 247 239 207 236 236 275 267 224 249 254 187 255 268 286 264 301 306 307 326 330 317 308 328 306 280 304 300 302 307 314 315 312 313
225 219 210 208 204 202 198 181 145 218 246 248 217 168 188 228 256 207 262 271 280 270 243 329 291 300 296 321 316 327 309 321 319 295 312 321 302 283 291 311 314 316 319 317 312
206 202 191 198 194 191 182 175 149 210 190 210 187 163 214 268 254 239 253 318 254 219 287 281 292 298 302 309 312 336 308 325 300 307 299 295 269 296 307 314 316 316 317 314 310
197 203 193 194 193 187 181 132 239 210 211 191 159 176 267 263 221 279 258 231 264 260 221 281 271 284 289 310 312 313 309 309 307 343 319 296 298 290 311 314 320 321 319 315 308
205 212 206 208 203 192 193 193 219 207 201 195 197 168 224 213 288 265 266 273 275 276 278 276 286 291 300 311 316 320 320 325 310 310 324 304 302 310 315 323 324 323 321 315 311
208 218 220 216 207 199 177 222 218 208 212 217 220 229 221 243 211 257 256 276 275 288 293 291 293 295 320 312 317 319 317 316 329 311 314 305 299 316 320 325 324 321 321 317 312
221 238 244 246 231 220 224 228 230 228 231 233 241 247 247 252 254 267 268 288 288 291 292 304 299 306 285 311 317 321 326 325 339 321 307 334 300 321 325 326 326 325 323 320 319
231 245 251 252 242 239 235 232 237 244 251 250 249 252 255 261 269 272 285 291 291 292 297 306 304 312 305 317 320 329 319 325 332 327 324 337 317 329 329 329 331 329 326 326 326
240 243 250 249 241 242 247 253 253 257 256 258 262 262 266 274 279 285 286 292 293 295 297 302 302 303 286 287 293 306 309 325 332 332 318 325 326 334 336 334 333 332 331 330 328
236 239 238 241 244 251 256 263 269 266 264 260 262 267 274 280 283 283 287 289 290 295 298 300 302 301 302 296 280 285 312 324 328 331 332 330 336 335 338 336 335 335 334 331 333
227 235 242 247 251 253 257 260 264 267 266 265 267 271 273 277 279 284 288 293 297 303 302 302 300 306 313 284 271 289 314 324 333 336 338 335 337 337 340 340 340 338 337 335 337
235 238 243 246 249 252 257 257 262 266 266 272 274 275 278 279 278 280 282 285 289 292 298 299 299 296 278 264 267 298 320 327 332 333 337 336 336 338 339 346 343 340 341 341 344